Laurinburg-Maxton, NC

2:47 PM EST on December 11, 2017 (GMT -0500)
Laurinburg-Maxton

Weather History for KMEB - March, 2014

Change the Weather History Date:

Saturday, March 29, 2014

  Actual Average (KHFF) Record (KHFF)
Temperature  
Mean Temperature 64 °F -  
Max Temperature 71 °F 64 °F 85 °F (2012)
Min Temperature 57 °F 44 °F 23 °F (2015)
Degree Days  
Heating Degree Days 2    
Growing Degree Days 14 (Base 50)    
Moisture  
Dew Point 61 °F    
Average Humidity 95    
Maximum Humidity 100    
Minimum Humidity 78    
Precipitation  
Precipitation 0.92 in - - ()
Sea Level Pressure  
Sea Level Pressure 29.90 in    
Wind  
Wind Speed 6 mph (South)    
Max Wind Speed 22 mph    
Max Gust Speed 26 mph    
Visibility 6 miles    
Events Rain , Thunderstorm    
Averages and records for this station are not official NWS values.
T = Trace of Precipitation, MM = Missing Value Source: NWS Daily Summary

Daily Weather History Graph

Daily Weather History Graph

Search for Another Location

Airport or City:

Trip Planner

Search our weather history database for the weather conditions in past years. The results will help you decide how hot, cold, wet, or windy it might be!

Date:

Astronomy

Mar. 29, 2014 Rise Set
Actual Time 7:08 AM EDT 7:36 PM EDT
Civil Twilight 6:43 AM EDT 8:01 PM EDT
Nautical Twilight 6:13 AM EDT 8:31 PM EDT
Astronomical Twilight 5:43 AM EDT 9:01 PM EDT
Moon 6:13 AM EDT (3/29) 6:40 PM EDT (3/29)
Length of Visible Light 13h 18m
Length of Day
12h 27m
Waning Crescent, 2% of the Moon is Illuminated
Mar 29
Waning Crescent
Mar 30
New
Apr 7
First Quarter
Apr 15
Full
Apr 22
Last Quarter

Hourly Weather History & Observations

Time (EDT) Temp. Dew Point Humidity Pressure Visibility Wind Dir Wind Speed Gust Speed Precip Events Conditions
12:11 AM 59.0 °F 59.0 °F 100% 30.12 in 1.2 mi Calm Calm - 0.02 in Rain Light Rain
12:23 AM 57.9 °F 57.9 °F 100% 30.12 in 1.0 mi Calm Calm - 0.03 in Rain Rain
12:32 AM 57.9 °F 57.9 °F 100% 30.12 in 1.8 mi NNW 3.5 mph - 0.05 in Rain Rain
12:39 AM 57.9 °F 57.9 °F 100% 30.12 in 2.0 mi NW 4.6 mph - 0.06 in Rain Rain
12:52 AM 59.0 °F 59.0 °F 100% 30.12 in 3.0 mi WNW 4.6 mph - 0.07 in Rain Light Rain
1:03 AM 59.0 °F 59.0 °F 100% 30.12 in 2.0 mi NW 4.6 mph - 0.05 in Rain Heavy Rain
1:14 AM 59.0 °F 59.0 °F 100% 30.12 in 3.0 mi WNW 5.8 mph - 0.08 in Rain Rain
1:22 AM 59.0 °F 59.0 °F 100% 30.11 in 2.5 mi NNW 4.6 mph - 0.11 in Rain Rain
1:27 AM 59.0 °F 59.0 °F 100% 30.11 in 3.0 mi NNW 4.6 mph - 0.12 in Rain Rain
1:37 AM 59.0 °F 59.0 °F 100% 30.11 in 4.0 mi NNW 3.5 mph - 0.13 in Rain Light Rain
1:52 AM 59.0 °F 59.0 °F 100% 30.12 in 2.0 mi West 6.9 mph - 0.18 in Rain Heavy Rain
2:00 AM 59.0 °F 59.0 °F 100% 30.12 in 2.0 mi WNW 3.5 mph - 0.03 in Rain Rain
2:17 AM 59.0 °F 59.0 °F 100% 30.11 in 3.0 mi North 3.5 mph - 0.06 in Rain Rain
2:52 AM 57.9 °F 57.9 °F 100% 30.08 in 4.0 mi ENE 5.8 mph - 0.09 in Rain Light Rain
3:02 AM 57.9 °F 57.9 °F 100% 30.07 in 2.5 mi NE 6.9 mph - 0.00 in Rain Light Rain
3:10 AM 57.9 °F 57.9 °F 100% 30.07 in 3.0 mi ENE 5.8 mph - 0.00 in   Overcast
3:30 AM 57.9 °F 57.9 °F 100% 30.06 in 5.0 mi NE 5.8 mph - 0.00 in   Overcast
3:40 AM 57.9 °F 57.9 °F 100% 30.05 in 4.0 mi ENE 5.8 mph - 0.01 in Rain Light Rain
3:52 AM 57.9 °F 57.9 °F 100% 30.05 in 4.0 mi East 4.6 mph - 0.01 in   Overcast
4:05 AM 57.9 °F 57.9 °F 100% 30.04 in 3.0 mi East 5.8 mph - 0.01 in Rain Rain
4:28 AM 57.9 °F 57.9 °F 100% 30.04 in 3.0 mi ESE 6.9 mph - 0.03 in Rain Light Rain
4:52 AM 57.9 °F 57.9 °F 100% 30.02 in 2.5 mi East 8.1 mph - 0.06 in Rain Light Rain
4:55 AM 57.9 °F 57.9 °F 100% 30.02 in 3.0 mi East 9.2 mph - 0.00 in Rain Light Rain
5:22 AM 57.9 °F 57.9 °F 100% 30.02 in 8.0 mi ESE 4.6 mph - 0.02 in Rain Light Rain
5:52 AM 57.9 °F 57.9 °F 100% 30.02 in 4.0 mi East 5.8 mph - 0.06 in Rain Light Rain
6:31 AM 57.9 °F 57.9 °F 100% 30.01 in 4.0 mi ENE 6.9 mph - 0.06 in Rain Rain
6:52 AM 57.9 °F 57.9 °F 100% 30.00 in 7.0 mi East 6.9 mph - 0.09 in Rain Light Rain
7:52 AM 57.9 °F 57.9 °F 100% 30.01 in 10.0 mi East 6.9 mph - 0.03 in   Overcast
8:33 AM 60.1 °F 59.0 °F 96% 29.99 in 10.0 mi SSE 9.2 mph - N/A   Overcast
8:52 AM 60.1 °F 60.1 °F 100% 30.00 in 10.0 mi South 10.4 mph - N/A   Overcast
9:52 AM 61.0 °F 61.0 °F 100% 29.96 in 10.0 mi SSE 10.4 mph - 0.02 in   Overcast
10:24 AM 61.0 °F 61.0 °F 100% 29.95 in 2.0 mi South 6.9 mph - 0.03 in Rain Rain
10:44 AM 62.1 °F 61.0 °F 96% 29.94 in 4.0 mi SSE 6.9 mph - 0.05 in Rain Light Rain
10:52 AM 62.1 °F 61.0 °F 96% 29.93 in 4.0 mi SSE 8.1 mph - 0.05 in Rain Light Rain
11:52 AM 63.0 °F 62.1 °F 97% 29.89 in 10.0 mi SSE 11.5 mph - 0.03 in   Overcast
12:52 PM 64.0 °F 63.0 °F 96% 29.83 in 10.0 mi South 13.8 mph - 0.00 in   Overcast
1:42 PM 66.9 °F 63.0 °F 87% 29.80 in 10.0 mi South 12.7 mph - N/A   Overcast
1:52 PM 66.9 °F 64.0 °F 90% 29.79 in 10.0 mi South 10.4 mph - N/A   Overcast
2:10 PM 66.9 °F 63.0 °F 87% 29.78 in 10.0 mi South 9.2 mph - N/A   Overcast
2:52 PM 66.9 °F 63.0 °F 87% 29.75 in 10.0 mi South 8.1 mph - N/A   Overcast
3:52 PM 68.0 °F 64.0 °F 87% 29.73 in 10.0 mi SSW 6.9 mph - N/A   Overcast
3:59 PM 68.0 °F 64.0 °F 87% 29.73 in 10.0 mi SW 8.1 mph - N/A   Overcast
4:52 PM 69.1 °F 63.0 °F 81% 29.70 in 10.0 mi SSW 5.8 mph - N/A   Overcast
5:05 PM 70.0 °F 63.0 °F 78% 29.70 in 10.0 mi South 8.1 mph - N/A   Overcast
5:52 PM 70.0 °F 64.0 °F 81% 29.67 in 10.0 mi SE 11.5 mph - N/A   Mostly Cloudy
6:52 PM 68.0 °F 63.0 °F 84% 29.64 in 10.0 mi SSE 11.5 mph - N/A   Mostly Cloudy
7:12 PM 68.0 °F 63.0 °F 84% 29.64 in 10.0 mi South 15.0 mph - N/A Thunderstorm Mostly Cloudy
7:25 PM 68.0 °F 64.0 °F 87% 29.62 in 8.0 mi South 21.9 mph - 0.00 in Rain , Thunderstorm Light Thunderstorms and Rain
7:43 PM 66.0 °F 64.9 °F 96% 29.65 in 7.0 mi SSW 9.2 mph 26.5 mph 0.00 in Rain Light Rain
7:52 PM 66.0 °F 64.9 °F 96% 29.64 in 9.0 mi SSW 5.8 mph - 0.00 in   Overcast
8:09 PM 66.0 °F 64.0 °F 93% 29.64 in 9.0 mi South 4.6 mph - N/A   Overcast
8:23 PM 66.0 °F 64.9 °F 96% 29.64 in 2.5 mi West 8.1 mph - 0.06 in Rain Heavy Rain
8:33 PM 66.0 °F 64.9 °F 96% 29.64 in 1.5 mi West 9.2 mph - 0.19 in Rain Heavy Rain
8:45 PM 64.9 °F 64.9 °F 100% 29.64 in 3.0 mi SW 4.6 mph - 0.23 in Rain Light Rain
8:52 PM 64.9 °F 64.9 °F 100% 29.64 in 10.0 mi SW 6.9 mph - 0.23 in   Overcast
9:52 PM 64.0 °F 63.0 °F 96% 29.63 in 10.0 mi SSW 8.1 mph - N/A   Overcast
10:52 PM 63.0 °F 61.0 °F 93% 29.62 in 10.0 mi SW 9.2 mph - N/A   Clear
11:41 PM 63.0 °F 57.0 °F 81% 29.63 in 10.0 mi WSW 17.3 mph 25.3 mph N/A   Mostly Cloudy
11:52 PM 62.1 °F 57.0 °F 84% 29.62 in 10.0 mi WSW 12.7 mph 23.0 mph N/A   Overcast